Location: *
(41.3833°S, 177.8333°W)
Time: 20:47:03
(UTC+00:00)

Cosmos 1980 Rocket - Pass Details

Date: 01 April 2020
Orbit: 828 x 850 km, 71.0° (Epoch: 31 May)

Event Time Altitude Azimuth Distance (km) Brightness Sun altitude
Exits shadow 15:52:34 20° 210° (SSW) 1,919 3.9 -25.9°
Drops below altitude 10° 15:55:24 10° 182° (S) 2,511 4.8 -25.4°
Sets 15:58:29 0° 166° (SSE) 3,453 5.8 -24.9°
